Tracking 20748 objects as of 4-Jun-2020
HD Live streaming from Space Station
objects crossing your sky now
Track the most recent launched group of Starlink satellites

PSLV R/B

Track PSLV R/B now!
10-day predictions


NORAD ID: 41242
Int'l Code: 2016-003B
Perigee: 356.5 km
Apogee: 20,737.6 km
Inclination: 19.4 °
Period: 365.0 minutes
Semi major axis: 16918 km
RCS: Unknown
Launch date: January 20, 2016
Source: India (IND)
Launch site: SRIHARIKOTA (SRI)

Note: This is a ROCKET BODY
aabbcc
Your satellite tracking list
Your tracking list is empty




NASA's NSSDC Master Catalog

Two Line Element Set (TLE):
1 41242U 16003B   20155.53672505 -.00000095  00000-0  88229-4 0  9997
2 41242  19.4383 341.3573 6023462 256.6922  33.2340  3.94527675 62960
Source of the keplerian elements: AFSPC